NUSANTARA SATU

Last updated on Mon Oct 14 2024 00:02:41 GMT+0000 (Coordinated Universal Time)

1 44048U 19009A 24287.54280903 -.00000236 00000+0 00000+0 0 9993 2 44048 0.0235 151.2622 0004160 7.6374 205.1353 1.00270560 20630
UTC large
Height (km)
Speed (km/s)
/
Latitude / Longitude
Inclination (degrees)
Orbital Period (minutes)
Azimuth
Elevation
Range (km)
Doppler Factor

Next 0 passes for location: London (51.5072 / 0.1276)

Sorry there are no passes over London.